Regional Weather Roundup
Issued by NWS

Home | Current Version | Previous Version | Text Only | Print | Product List | Glossary Off
Versions: 1 2 3 4 5 6 7 8 9 10 11 12 13 14 15 16 17 18 19 20 21 22 23 24 25 26 27 28 29 30 31 32 33 34 35 36 37 38 39 40 41 42 43 44 45 46 47 48 49 50

264
ASUS45 KBOI 230910
RWRID

IDAHO REGIONAL WEATHER ROUNDUP
NATIONAL WEATHER SERVICE BOISE ID
300 AM MDT MON OCT 23 2017

NOTE: "FAIR" INDICATES FEW OR NO CLOUDS BELOW 12000 FEET
WITH NO SIGNIFICANT WEATHER AND/OR OBSTRUCTIONS TO VISIBILITY

IDZ012-014-231000-
SOUTHWEST IDAHO


CITY           SKY/WX    TMP DP  RH WIND       PRES   REMARKS
BOISE          PTCLDY    43  41  93 CALM      30.49R FOG
CALDWELL       CLEAR     43  42  97 SW6       30.51R
MOUNTAIN HOME  PTCLDY    45  45 100 N7        30.48R
$$

IDZ016-017-231000-
SOUTHCENTRAL IDAHO


CITY           SKY/WX    TMP DP  RH WIND       PRES   REMARKS
BURLEY         PTCLDY    47  42  83 W9        30.47R
JEROME         PTCLDY    45  45 100 SW8       30.49R
TWIN FALLS     CLOUDY    48  45  89 SW13      30.49R
$$

IDZ019>023-231000-
SOUTHEAST IDAHO


CITY           SKY/WX    TMP DP  RH WIND       PRES   REMARKS
IDAHO FALLS    CLOUDY    42  38  85 S8        30.44R
POCATELLO      CLOUDY    47  43  86 SW15      30.46R
REXBURG        CLOUDY    42  30  62 NE3       30.45R
$$

IDZ006-010-011-018-031-032-231000-
CENTRAL IDAHO MOUNTAINS


CITY           SKY/WX    TMP DP  RH WIND       PRES   REMARKS
MCCALL         MOCLDY    32  31  96 CALM      30.49S
HAILEY         CLEAR     37  30  75 W6        30.46R WCI  33
STANLEY          N/A     32  29  88 CALM      30.51R
SALMON         CLOUDY    35  29  78 SE5       30.48R WCI  31
CHALLIS        PTCLDY    35  26  69 CALM      30.46R
$$

IDZ002-004-006-007-026-231000-
NORTHERN IDAHO


CITY           SKY/WX    TMP DP  RH WIND       PRES   REMARKS
LEWISTON       PTCLDY    52  38  58 CALM      30.50R
LOWELL           N/A     45  44  97 CALM      30.55R
COEUR D`ALENE  PTCLDY    43  33  68 S6        30.46R
MULLAN PASS    MOCLDY    31  25  78 NW8       30.41R WCI  23
$$




USA.gov is the U.S. government's official web portal to all federal, state and local government web resources and services.